Regional Weather Roundup
Issued by NWS

Home | Current Version | Previous Version | Text Only | Print | Product List | Glossary Off
Versions: 1 2 3 4 5 6 7 8 9 10 11 12 13 14 15 16 17 18 19 20 21 22 23 24 25 26 27 28 29 30 31 32 33 34 35 36 37 38 39 40 41 42 43 44 45 46 47 48 49 50

000
ASUS43 KLSX 091510
RWRMO

WEATHER SUMMARY FOR MISSOURI
NATIONAL WEATHER SERVICE SPRINGFIELD MO
900 AM CST FRI DEC 09 2016

NOTE: "FAIR" INDICATES FEW OR NO CLOUDS BELOW 12,000 FEET WITH NO
       SIGNIFICANT WEATHER AND/OR OBSTRUCTIONS TO VISIBILITY.
       CURRENT SKY AND/OR WEATHER CONDITIONS ARE NOT AVAILABLE FOR
       CHILLICOTHE AND FARMINGTON.

MOZ001>031-035>038-043-044-053-054-091600-
...NORTHERN AND WESTERN MISSOURI...

CITY           SKY/WX    TMP DP  RH WIND       PRES   REMARKS
KANSAS CTY INT CLOUDY    17   9  70 S3        30.64R
KANSAS C DTWN  CLOUDY    20  10  65 E3        30.67R
LEE`S SUMMIT   CLOUDY    18  10  71 CALM      30.65R
ST JOSEPH      CLOUDY    15  12  88 CALM      30.66R
CHILLICOTHE      N/A     17   9  70 N3        30.66S
KIRKSVILLE     SUNNY     14   9  80 NW8       30.63R WCI   3

$$
MOZ066>068-077>081-088>096-101>105-091600-
...SOUTHWEST MISSOURI...

CITY           SKY/WX    TMP DP  RH WIND       PRES   REMARKS
SPRINGFIELD    SUNNY     20  13  74 CALM      30.62R
JOPLIN         SUNNY     19  13  77 VRB5      30.66S WCI  12
BRANSON        MOSUNNY   19  10  68 CALM      30.64S

$$
MOZ032>034-039>042-045>050-055>058-069>072-091600-
...CENTRAL MISSOURI...

CITY           SKY/WX    TMP DP  RH WIND       PRES   REMARKS
COLUMBIA       SUNNY     18  11  74 N6        30.63S WCI  10
JEFFERSON CITY SUNNY     17  12  80 VRB6      30.67R WCI   9
ROLLA          SUNNY     17  11  77 NW7       30.60R WCI   8
SEDALIA        MOSUNNY   18  10  71 NW5       30.66R WCI  11
WARRENSBURG    CLOUDY    18  12  79 CALM      30.66S
OSAGE BEACH    SUNNY     23  12  62 CALM      30.66R

$$
MOZ051-052-059>065-091600-
...EAST CENTRAL MISSOURI...

CITY           SKY/WX    TMP DP  RH WIND       PRES   REMARKS
ST LOUIS INTL  MOSUNNY   22  12  65 W10       30.64R WCI  11
SPIRIT OF STL  SUNNY     20  13  74 W7        30.65S WCI  11
ST CHARLES     SUNNY     20  14  77 W7        30.64S WCI  11

$$
MOZ072>076-082>087-097>100-106>115-091600-
...SOUTH CENTRAL AND SOUTHEAST MISSOURI...

CITY           SKY/WX    TMP DP  RH WIND       PRES   REMARKS
CAPE GIRARDEAU SUNNY     23  14  68 NW8       30.66R WCI  14
FARMINGTON     SUNNY     19  13  77 NW8       30.62S WCI   9
POPLAR BLUFF   SUNNY     23  15  71 NW7       30.68R WCI  15
WEST PLAINS    SUNNY     21  13  71 CALM      30.63R

$$




USA.gov is the U.S. government's official web portal to all federal, state and local government web resources and services.